Time,TemperatureF,DewpointF,PressureIn,WindDirection,WindDirectionDegrees,WindSpeedMPH,WindSpeedGustMPH,Humidity,HourlyPrecipIn,Conditions,Clouds,dailyrainin,SolarRadiationWatts/m^2,SoftwareType,DateUTC
2013-04-23 00:12:00,28.0,27.0,-100.00,NW,322,10.0,27.0,95,0.00,,,0.00,0.000000,,2013-04-23 06:12:00,
2013-04-23 00:21:00,28.0,27.0,-100.00,NW,322,10.0,27.0,95,0.00,,,0.00,0.000000,,2013-04-23 06:21:00,
2013-04-23 00:32:00,28.0,27.0,-100.00,NW,322,10.0,27.0,95,0.00,,,0.00,0.000000,,2013-04-23 06:32:00,
2013-04-23 00:41:00,28.0,27.0,-100.00,NW,322,10.0,27.0,95,0.00,,,0.00,0.000000,,2013-04-23 06:41:00,
2013-04-23 01:21:00,27.0,26.0,-100.00,NW,317,7.0,15.0,97,0.00,,,0.00,0.000000,,2013-04-23 07:21:00,
2013-04-23 01:32:00,27.0,26.0,-100.00,NW,317,7.0,15.0,97,0.00,,,0.00,0.000000,,2013-04-23 07:32:00,
2013-04-23 01:42:00,27.0,26.0,-100.00,NW,317,7.0,15.0,97,0.00,,,0.00,0.000000,,2013-04-23 07:42:00,
2013-04-23 02:21:00,27.0,26.0,-100.00,South,175,7.0,17.0,96,0.00,,,0.00,0.000000,,2013-04-23 08:21:00,
2013-04-23 02:31:00,27.0,26.0,-100.00,South,175,7.0,17.0,96,0.00,,,0.00,0.000000,,2013-04-23 08:31:00,
2013-04-23 02:42:00,27.0,26.0,-100.00,South,175,7.0,17.0,96,0.00,,,0.00,0.000000,,2013-04-23 08:42:00,
2013-04-23 03:11:00,28.0,20.0,-100.00,SW,233,7.0,16.0,72,0.00,,,0.00,0.000000,,2013-04-23 09:11:00,
2013-04-23 03:21:00,28.0,20.0,-100.00,SW,233,7.0,16.0,72,0.00,,,0.00,0.000000,,2013-04-23 09:21:00,
2013-04-23 03:32:00,28.0,20.0,-100.00,SW,233,7.0,16.0,72,0.00,,,0.00,0.000000,,2013-04-23 09:32:00,
2013-04-23 03:42:00,28.0,20.0,-100.00,SW,233,7.0,16.0,72,0.00,,,0.00,0.000000,,2013-04-23 09:42:00,
2013-04-23 04:22:00,25.0,22.0,-100.00,West,266,8.0,19.0,88,0.00,,,0.00,0.000000,,2013-04-23 10:22:00,
2013-04-23 04:32:00,25.0,22.0,-100.00,West,266,8.0,19.0,88,0.00,,,0.00,0.000000,,2013-04-23 10:32:00,
2013-04-23 04:42:00,25.0,22.0,-100.00,West,266,8.0,19.0,88,0.00,,,0.00,0.000000,,2013-04-23 10:42:00,
2013-04-23 05:12:00,24.0,23.0,-100.00,SSE,155,6.0,10.0,96,0.00,,,0.00,0.000000,,2013-04-23 11:12:00,
2013-04-23 05:21:00,24.0,23.0,-100.00,SSE,155,6.0,10.0,96,0.00,,,0.00,0.000000,,2013-04-23 11:21:00,
2013-04-23 05:32:00,24.0,23.0,-100.00,SSE,155,6.0,10.0,96,0.00,,,0.00,0.000000,,2013-04-23 11:32:00,
2013-04-23 05:42:00,24.0,23.0,-100.00,SSE,155,6.0,10.0,96,0.00,,,0.00,0.000000,,2013-04-23 11:42:00,
2013-04-23 06:22:00,25.0,24.0,-100.00,NNW,342,9.0,21.0,96,0.00,,,0.00,0.000000,,2013-04-23 12:22:00,
2013-04-23 06:32:00,25.0,24.0,-100.00,NNW,342,9.0,21.0,96,0.00,,,0.00,0.000000,,2013-04-23 12:32:00,
2013-04-23 06:41:00,25.0,24.0,-100.00,NNW,342,9.0,21.0,96,0.00,,,0.00,0.000000,,2013-04-23 12:41:00,
2013-04-23 07:11:00,23.0,22.0,-100.00,NW,304,10.0,26.0,94,0.00,,,0.00,5.000000,,2013-04-23 13:11:00,
2013-04-23 07:21:00,23.0,22.0,-100.00,NW,304,10.0,26.0,94,0.00,,,0.00,5.000000,,2013-04-23 13:21:00,
2013-04-23 07:32:00,23.0,22.0,-100.00,NW,304,10.0,26.0,94,0.00,,,0.00,5.000000,,2013-04-23 13:32:00,
2013-04-23 07:41:00,23.0,22.0,-100.00,NW,304,10.0,26.0,94,0.00,,,0.00,5.000000,,2013-04-23 13:41:00,
2013-04-23 08:11:00,22.0,20.0,-100.00,NNW,337,10.0,18.0,90,0.00,,,0.00,106.000000,,2013-04-23 14:11:00,
2013-04-23 08:22:00,22.0,20.0,-100.00,NNW,337,10.0,18.0,90,0.00,,,0.00,106.000000,,2013-04-23 14:22:00,
2013-04-23 08:31:00,22.0,20.0,-100.00,NNW,337,10.0,18.0,90,0.00,,,0.00,106.000000,,2013-04-23 14:31:00,
2013-04-23 08:42:00,22.0,20.0,-100.00,NNW,337,10.0,18.0,90,0.00,,,0.00,106.000000,,2013-04-23 14:42:00,
2013-04-23 09:21:00,25.0,19.0,-100.00,NNW,338,11.0,17.0,79,0.00,,,0.00,294.000000,,2013-04-23 15:21:00,
2013-04-23 09:32:00,25.0,19.0,-100.00,NNW,338,11.0,17.0,79,0.00,,,0.00,294.000000,,2013-04-23 15:32:00,
2013-04-23 09:42:00,25.0,19.0,-100.00,NNW,338,11.0,17.0,79,0.00,,,0.00,294.000000,,2013-04-23 15:42:00,
2013-04-23 10:12:00,27.0,18.0,-100.00,NNW,337,11.0,18.0,69,0.04,,,0.04,593.000000,,2013-04-23 16:12:00,
2013-04-23 10:23:00,27.0,18.0,-100.00,NNW,337,11.0,18.0,69,0.04,,,0.04,593.000000,,2013-04-23 16:23:00,
2013-04-23 10:33:00,27.0,18.0,-100.00,NNW,337,11.0,18.0,69,0.04,,,0.04,593.000000,,2013-04-23 16:33:00,
2013-04-23 10:42:00,27.0,18.0,-100.00,NNW,337,11.0,18.0,69,0.04,,,0.04,593.000000,,2013-04-23 16:42:00,
2013-04-23 11:22:00,27.0,16.0,-100.00,NNW,345,7.0,18.0,64,0.02,,,0.06,472.000000,,2013-04-23 17:22:00,
2013-04-23 11:32:00,27.0,16.0,-100.00,NNW,345,7.0,18.0,64,0.02,,,0.06,472.000000,,2013-04-23 17:32:00,
2013-04-23 11:42:00,27.0,16.0,-100.00,NNW,345,7.0,18.0,64,0.02,,,0.06,472.000000,,2013-04-23 17:42:00,
2013-04-23 12:22:00,30.0,14.0,-100.00,NNW,341,18.0,26.0,51,0.00,,,0.06,967.000000,,2013-04-23 18:22:00,
2013-04-23 12:32:00,30.0,14.0,-100.00,NNW,341,18.0,26.0,51,0.00,,,0.06,967.000000,,2013-04-23 18:32:00,
2013-04-23 12:42:00,30.0,14.0,-100.00,NNW,341,18.0,26.0,51,0.00,,,0.06,967.000000,,2013-04-23 18:42:00,
2013-04-23 13:21:00,32.0,9.0,-100.00,NNW,331,15.0,27.0,38,0.00,,,0.06,1044.000000,,2013-04-23 19:21:00,
2013-04-23 13:32:00,32.0,9.0,-100.00,NNW,331,15.0,27.0,38,0.00,,,0.06,1044.000000,,2013-04-23 19:32:00,
2013-04-23 13:42:00,32.0,9.0,-100.00,NNW,331,15.0,27.0,38,0.00,,,0.06,1044.000000,,2013-04-23 19:42:00,
2013-04-23 14:11:00,30.0,8.0,-100.00,NNW,330,16.0,27.0,38,0.00,,,0.06,658.000000,,2013-04-23 20:11:00,
2013-04-23 14:21:00,30.0,8.0,-100.00,NNW,330,16.0,27.0,38,0.00,,,0.06,658.000000,,2013-04-23 20:21:00,
2013-04-23 14:31:00,30.0,8.0,-100.00,NNW,330,16.0,27.0,38,0.00,,,0.06,658.000000,,2013-04-23 20:31:00,
2013-04-23 14:41:00,30.0,8.0,-100.00,NNW,330,16.0,27.0,38,0.00,,,0.06,658.000000,,2013-04-23 20:41:00,
2013-04-23 15:12:00,33.0,8.0,-100.00,NW,322,13.0,27.0,35,0.00,,,0.06,942.000000,,2013-04-23 21:12:00,
2013-04-23 15:21:00,33.0,8.0,-100.00,NW,322,13.0,27.0,35,0.00,,,0.06,942.000000,,2013-04-23 21:21:00,
2013-04-23 15:32:00,33.0,8.0,-100.00,NW,322,13.0,27.0,35,0.00,,,0.06,942.000000,,2013-04-23 21:32:00,
2013-04-23 15:43:00,33.0,8.0,-100.00,NW,322,13.0,27.0,35,0.00,,,0.06,942.000000,,2013-04-23 21:43:00,
2013-04-23 16:12:00,35.0,7.0,-100.00,NW,317,12.0,28.0,31,0.00,,,0.06,883.000000,,2013-04-23 22:12:00,
2013-04-23 16:22:00,35.0,7.0,-100.00,NW,317,12.0,28.0,31,0.00,,,0.06,883.000000,,2013-04-23 22:22:00,
2013-04-23 16:33:00,35.0,7.0,-100.00,NW,317,12.0,28.0,31,0.00,,,0.06,883.000000,,2013-04-23 22:33:00,
2013-04-23 16:42:00,35.0,7.0,-100.00,NW,317,12.0,28.0,31,0.00,,,0.06,883.000000,,2013-04-23 22:42:00,
2013-04-23 17:12:00,35.0,4.0,-100.00,NW,314,12.0,27.0,27,0.00,,,0.06,815.000000,,2013-04-23 23:12:00,
2013-04-23 17:22:00,35.0,4.0,-100.00,NW,314,12.0,27.0,27,0.00,,,0.06,815.000000,,2013-04-23 23:22:00,
2013-04-23 17:32:00,35.0,4.0,-100.00,NW,314,12.0,27.0,27,0.00,,,0.06,815.000000,,2013-04-23 23:32:00,
2013-04-23 17:42:00,35.0,4.0,-100.00,NW,314,12.0,27.0,27,0.00,,,0.06,815.000000,,2013-04-23 23:42:00,
2013-04-23 18:11:00,33.0,4.0,-100.00,NW,317,18.0,27.0,29,0.00,,,0.06,573.000000,,2013-04-24 00:11:00,
2013-04-23 18:21:00,33.0,4.0,-100.00,NW,317,18.0,27.0,29,0.00,,,0.06,573.000000,,2013-04-24 00:21:00,
2013-04-23 18:32:00,33.0,4.0,-100.00,NW,317,18.0,27.0,29,0.00,,,0.06,573.000000,,2013-04-24 00:32:00,
2013-04-23 18:41:00,33.0,4.0,-100.00,NW,317,18.0,27.0,29,0.00,,,0.06,573.000000,,2013-04-24 00:41:00,
2013-04-23 19:21:00,32.0,5.0,-100.00,NW,320,14.0,28.0,31,0.00,,,0.06,321.000000,,2013-04-24 01:21:00,
2013-04-23 19:32:00,32.0,5.0,-100.00,NW,320,14.0,28.0,31,0.00,,,0.06,321.000000,,2013-04-24 01:32:00,
2013-04-23 19:42:00,32.0,5.0,-100.00,NW,320,14.0,28.0,31,0.00,,,0.06,321.000000,,2013-04-24 01:42:00,
2013-04-23 20:26:00,28.0,6.0,-100.00,NW,308,11.0,24.0,38,0.00,,,0.06,94.000000,,2013-04-24 02:26:00,
2013-04-23 20:36:00,28.0,6.0,-100.00,NW,308,11.0,24.0,38,0.00,,,0.06,94.000000,,2013-04-24 02:36:00,
2013-04-23 21:14:00,25.0,4.0,-100.00,NW,315,8.0,14.0,40,0.00,,,0.06,1.000000,,2013-04-24 03:14:00,
2013-04-23 21:26:00,25.0,4.0,-100.00,NW,315,8.0,14.0,40,0.00,,,0.06,1.000000,,2013-04-24 03:26:00,
2013-04-23 21:37:00,25.0,4.0,-100.00,NW,315,8.0,14.0,40,0.00,,,0.06,1.000000,,2013-04-24 03:37:00,
2013-04-23 22:12:00,24.0,3.0,-100.00,NNW,342,5.0,11.0,39,0.00,,,0.06,0.000000,,2013-04-24 04:12:00,
2013-04-23 22:22:00,24.0,3.0,-100.00,NNW,342,5.0,11.0,39,0.00,,,0.06,0.000000,,2013-04-24 04:22:00,
2013-04-23 22:33:00,24.0,3.0,-100.00,NNW,342,5.0,11.0,39,0.00,,,0.06,0.000000,,2013-04-24 04:33:00,
2013-04-23 22:43:00,24.0,3.0,-100.00,NNW,342,5.0,11.0,39,0.00,,,0.06,0.000000,,2013-04-24 04:43:00,
2013-04-23 23:21:00,23.0,5.0,-100.00,SSE,155,7.0,10.0,45,0.00,,,0.06,0.000000,,2013-04-24 05:21:00,
2013-04-23 23:32:00,23.0,5.0,-100.00,SSE,155,7.0,10.0,45,0.00,,,0.06,0.000000,,2013-04-24 05:32:00,
2013-04-23 23:42:00,23.0,5.0,-100.00,SSE,155,7.0,10.0,45,0.00,,,0.06,0.000000,,2013-04-24 05:42:00,